FW4684 Weather Reports


time (UTC)temp
C
wind
direction
speed
KPH
gust
KPH
rain 1hr
cm
rain 24hr
cm
rain mn
cm
humidity
%
barometer
mb
20260505023107 12 257 0.0 0.0 0.00 0.00 0.00 56 1016.9
20260505022557 12 257 0.0 0.0 0.00 0.00 0.00 55 1016.9
20260505022059 13 257 0.0 0.0 0.00 0.00 0.00 54 1016.8
20260505021556 13 257 0.0 0.0 0.00 0.00 0.00 55 1016.8
20260505020553 13 257 0.0 0.0 0.00 0.00 0.00 53 1016.7
20260505020053 13 257 0.0 0.0 0.00 0.00 0.00 53 1016.6
20260505015550 14 257 0.0 0.0 0.00 0.00 0.00 52 1016.6
20260505015049 14 257 0.0 0.0 0.00 0.00 0.00 52 1016.5
20260505014547 14 257 0.0 0.0 0.00 0.00 0.00 50 1016.4
20260505014045 15 257 0.0 0.0 0.00 0.00 0.00 49 1016.3
20260505013544 15 257 0.0 0.0 0.00 0.00 0.00 49 1016.2
20260505013042 15 257 0.0 0.0 0.00 0.00 0.00 47 1016.1
20260505012540 15 257 0.0 0.0 0.00 0.00 0.00 47 1016.1
20260505012039 15 257 0.0 0.0 0.00 0.00 0.00 47 1016.1
20260505011537 16 257 0.0 0.0 0.00 0.00 0.00 47 1016.0
20260505010535 16 257 0.0 0.0 0.00 0.00 0.00 45 1015.9
20260505010037 16 257 0.0 0.0 0.00 0.00 0.00 45 1015.9
20260505005532 16 257 0.0 0.0 0.00 0.00 0.00 42 1015.9
20260505005030 17 257 0.0 0.0 0.00 0.00 0.00 41 1015.7
20260505004540 17 257 0.0 0.0 0.00 0.00 0.00 41 1015.6
20260505004026 17 257 0.0 0.0 0.00 0.00 0.00 39 1015.6
20260505003525 17 257 0.0 0.0 0.00 0.00 0.00 39 1015.5
20260505003024 18 278 0.0 0.0 0.00 0.00 0.00 38 1015.5
20260505002521 18 278 0.0 0.0 0.00 0.00 0.00 36 1015.5
20260505002021 18 278 0.0 0.0 0.00 0.00 0.00 34 1015.6
20260505001521 19 278 0.0 1.6 0.00 0.00 0.00 33 1015.5
20260505000516 20 253 0.0 3.2 0.00 0.00 0.00 32 1015.4
20260505000020 20 252 0.0 3.2 0.00 0.00 0.00 32 1015.4
20260504235512 20 271 0.0 3.2 0.00 0.00 0.00 31 1015.4
20260504235011 20 262 0.0 1.6 0.00 0.00 0.00 28 1015.3
20260504234510 21 262 0.0 3.2 0.00 0.00 0.00 28 1015.2
20260504234007 21 230 0.0 6.4 0.00 0.00 0.00 25 1015.2
20260504233506 21 264 0.0 6.4 0.00 0.00 0.00 25 1015.2
20260504233005 22 169 1.6 9.7 0.00 0.00 0.00 24 1015.2
20260504232503 22 224 3.2 8.0 0.00 0.00 0.00 23 1015.1
20260504232000 22 219 1.6 8.0 0.00 0.00 0.00 23 1015.2
20260504231606 22 231 3.2 8.0 0.00 0.00 0.00 22 1015.1
20260504231201 22 217 0.0 12.9 0.00 0.00 0.00 21 1015.0
20260504230602 22 174 1.6 19.3 0.00 0.00 0.00 21 1015.0
20260504230100 23 217 3.2 20.9 0.00 0.00 0.00 20 1015.1
20260504225558 23 236 1.6 12.9 0.00 0.00 0.00 21 1015.0
20260504225058 23 309 4.8 12.9 0.00 0.00 0.00 19 1014.9
20260504224605 23 242 3.2 14.5 0.00 0.00 0.00 19 1015.0
20260504224056 23 228 6.4 14.5 0.00 0.00 0.00 19 1015.0
20260504223554 23 62 4.8 12.9 0.00 0.00 0.00 19 1015.0
20260504223054 23 111 1.6 11.3 0.00 0.00 0.00 21 1015.0
20260504222552 23 154 3.2 17.7 0.00 0.00 0.00 21 1015.0
20260504222051 23 133 4.8 17.7 0.00 0.00 0.00 21 1015.1
20260504221602 23 255 1.6 9.7 0.00 0.00 0.00 21 1015.1
20260504221152 23 140 4.8 12.9 0.00 0.00 0.00 21 1015.0
20260504220552 23 153 3.2 14.5 0.00 0.00 0.00 22 1015.1
20260504220053 23 125 3.2 14.5 0.00 0.00 0.00 20 1015.1
20260504215549 24 46 3.2 17.7 0.00 0.00 0.00 21 1015.0
20260504215049 24 234 4.8 17.7 0.00 0.00 0.00 20 1015.0
20260504214552 24 165 6.4 16.1 0.00 0.00 0.00 19 1015.0
20260504214047 24 174 4.8 16.1 0.00 0.00 0.00 20 1015.0
20260504213548 25 205 4.8 16.1 0.00 0.00 0.00 19 1015.0
20260504213052 25 299 6.4 16.1 0.00 0.00 0.00 19 1014.9
20260504212545 25 163 0.0 9.7 0.00 0.00 0.00 20 1014.9
20260504212045 25 103 3.2 9.7 0.00 0.00 0.00 19 1014.9
20260504211545 25 265 3.2 16.1 0.00 0.00 0.00 22 1014.8
20260504211145 25 232 4.8 14.5 0.00 0.00 0.00 20 1014.9
20260504210545 25 146 6.4 14.5 0.00 0.00 0.00 19 1014.8
20260504210055 25 229 4.8 19.3 0.00 0.00 0.00 20 1015.0
20260504205546 25 219 1.6 11.3 0.00 0.00 0.00 21 1014.9
20260504205046 25 149 3.2 11.3 0.00 0.00 0.00 20 1014.9
20260504204619 25 136 3.2 16.1 0.00 0.00 0.00 20 1015.0
20260504204042 25 246 4.8 22.5 0.00 0.00 0.00 21 1014.9
20260504203544 25 112 11.3 22.5 0.00 0.00 0.00 24 1015.0
20260504203040 25 58 4.8 19.3 0.00 0.00 0.00 22 1015.1
20260504202539 25 242 9.7 19.3 0.00 0.00 0.00 19 1015.2
20260504202040 25 82 0.0 16.1 0.00 0.00 0.00 22 1015.2
20260504201538 25 240 6.4 16.1 0.00 0.00 0.00 20 1015.4
20260504201137 25 122 3.2 8.0 0.00 0.00 0.00 21 1015.4
20260504200537 25 194 1.6 8.0 0.00 0.00 0.00 21 1015.5
20260504200039 25 217 1.6 8.0 0.00 0.00 0.00 22 1015.5
20260504195534 25 285 0.0 16.1 0.00 0.00 0.00 22 1015.7
20260504195033 25 63 4.8 19.3 0.00 0.00 0.00 21 1015.7
20260504194544 25 229 6.4 17.7 0.00 0.00 0.00 21 1015.7
20260504194031 25 91 0.0 12.9 0.00 0.00 0.00 22 1015.8
20260504193633 25 193 4.8 12.9 0.00 0.00 0.00 21 1015.8
20260504193031 25 75 1.6 11.3 0.00 0.00 0.00 23 1015.8
20260504192531 25 115 1.6 12.9 0.00 0.00 0.00 21 1016.1
20260504192127 25 241 1.6 19.3 0.00 0.00 0.00 21 1016.1
20260504191526 25 132 4.8 11.3 0.00 0.00 0.00 21 1016.0
20260504191125 25 106 3.2 9.7 0.00 0.00 0.00 21 1016.3
20260504190525 25 145 0.0 9.7 0.00 0.00 0.00 22 1016.3
20260504190025 25 238 1.6 11.3 0.00 0.00 0.00 22 1016.2
20260504185523 24 154 1.6 8.0 0.00 0.00 0.00 21 1016.3
20260504185021 24 195 3.2 12.9 0.00 0.00 0.00 21 1016.4
20260504184521 25 103 4.8 12.9 0.00 0.00 0.00 19 1016.6
20260504184023 25 229 1.6 16.1 0.00 0.00 0.00 19 1016.6
20260504183519 24 258 3.2 16.1 0.00 0.00 0.00 19 1016.6
20260504183018 25 242 3.2 16.1 0.00 0.00 0.00 18 1016.7
20260504182519 25 144 3.2 12.9 0.00 0.00 0.00 19 1016.8
20260504182015 25 313 3.2 12.9 0.00 0.00 0.00 18 1016.9
20260504181513 24 275 1.6 8.0 0.00 0.00 0.00 18 1016.9
20260504181112 23 245 3.2 9.7 0.00 0.00 0.00 21 1017.0
20260504180513 23 195 1.6 12.9 0.00 0.00 0.00 19 1017.0
20260504180011 23 120 1.6 12.9 0.00 0.00 0.00 20 1017.1
20260504175511 23 53 3.2 14.5 0.00 0.00 0.00 22 1017.2
20260504175008 23 160 3.2 14.5 0.00 0.00 0.00 21 1017.2
20260504174508 23 250 4.8 14.5 0.00 0.00 0.00 22 1017.2
20260504174007 23 118 1.6 12.9 0.00 0.00 0.00 21 1017.3
20260504173506 23 259 3.2 17.7 0.00 0.00 0.00 21 1017.3
20260504173004 23 226 8.0 17.7 0.00 0.00 0.00 20 1017.4
20260504172502 23 226 6.4 16.1 0.00 0.00 0.00 20 1017.3
20260504172101 24 139 0.0 9.7 0.00 0.00 0.00 22 1017.3
20260504171600 24 266 1.6 11.3 0.00 0.00 0.00 22 1017.4
20260504171058 23 221 6.4 14.5 0.00 0.00 0.00 23 1017.5
20260504170557 23 247 4.8 14.5 0.00 0.00 0.00 22 1017.5
20260504151040 19 50 4.8 12.9 0.00 0.00 0.00 30 1019.8
20260504150541 19 41 4.8 12.9 0.00 0.00 0.00 30 1019.8
20260504141034 17 243 0.0 0.0 0.00 0.00 0.00 31 1019.9
20260504140534 17 214 0.0 0.0 0.00 0.00 0.00 31 1019.9
20260504130531 13 146 0.0 0.0 0.00 0.00 0.00 43 1019.7
20260504110518 2 240 0.0 0.0 0.00 0.00 0.00 44 1019.7
20260504100511 2 248 0.0 0.0 0.00 0.00 0.00 49 1019.7
20260504082001 3 251 0.0 0.0 0.00 0.00 0.00 56 1019.6
20260504081559 3 251 0.0 0.0 0.00 0.00 0.00 55 1019.6
20260504081058 3 251 0.0 0.0 0.00 0.00 0.00 55 1019.6
20260504045532 5 39 0.0 0.0 0.00 0.00 0.00 65 1020.0
20260504045031 5 39 0.0 0.0 0.00 0.00 0.00 65 1019.9
20260504044538 5 39 0.0 0.0 0.00 0.00 0.00 65 1020.0
20260504044030 5 253 0.0 0.0 0.00 0.00 0.00 64 1019.8
20260504043529 6 253 0.0 0.0 0.00 0.00 0.00 64 1019.7
20260504043029 6 253 0.0 0.0 0.00 0.00 0.00 64 1019.8
20260504042528 6 253 0.0 0.0 0.00 0.00 0.00 64 1019.7
20260504042031 6 253 0.0 0.0 0.00 0.00 0.00 64 1019.7
20260504041528 6 253 0.0 0.0 0.00 0.00 0.00 65 1019.7
20260504041024 6 253 0.0 0.0 0.00 0.00 0.00 64 1019.9
20260504040025 6 253 0.0 0.0 0.00 0.00 0.00 63 1019.8
20260504035522 6 253 0.0 0.0 0.00 0.00 0.00 63 1019.7
20260504035022 6 253 0.0 0.0 0.00 0.00 0.00 63 1019.5
20260504034520 6 253 0.0 0.0 0.00 0.00 0.00 62 1019.5
20260504034019 6 245 0.0 0.0 0.00 0.00 0.00 63 1019.5
20260504033520 6 243 0.0 0.0 0.00 0.00 0.00 63 1019.5
20260504033019 6 242 0.0 0.0 0.00 0.00 0.00 63 1019.6
20260504032516 7 283 0.0 0.0 0.00 0.00 0.00 62 1019.4
20260504032017 7 283 0.0 0.0 0.00 0.00 0.00 62 1019.6
20260504031515 7 282 0.0 0.0 0.00 0.00 0.00 62 1019.6
20260504031012 7 282 0.0 0.0 0.00 0.00 0.00 61 1019.6
20260504030013 7 282 0.0 0.0 0.00 0.00 0.00 60 1019.6
20260504025511 7 282 0.0 0.0 0.00 0.00 0.00 59 1019.7
20260504025010 7 282 0.0 0.0 0.00 0.00 0.00 59 1019.7
20260504024509 7 282 0.0 0.0 0.00 0.00 0.00 60 1019.7
20260504024007 8 282 0.0 0.0 0.00 0.00 0.00 60 1019.8
20260504023506 8 282 0.0 0.0 0.00 0.00 0.00 59 1019.8